Regional Weather Roundup
Issued by NWS Newport/Morehead, NC

Current Version | Previous Version | Graphics & Text | Print | Product List | Glossary Off
Versions: 1 2 3 4 5 6 7 8 9 10 11 12 13 14 15 16 17 18 19 20 21 22 23 24 25 26 27 28 29 30 31 32 33 34 35 36 37 38 39 40 41 42 43 44 45 46 47 48 49 50
434 ASUS42 KMHX 240613 RWRMHX WEATHER ROUNDUP FOR EASTERN NORTH CAROLINA NATIONAL WEATHER SERVICE NEWPORT/MOREHEAD CITY NC 200 AM EDT TUE MAY 24 2016 NOTE: "FAIR" INDICATES FEW OR NO CLOUDS BELOW 12,000 FEET WITH NO SIGNIFICANT WEATHER AND/OR OBSTRUCTIONS TO VISIBILITY NCZ015>017-031-032-045>047-102-103-240700- NORTH COAST CITY SKY/WX TMP DP RH WIND PRES REMARKS EDENTON PTCLDY N/A N/A N/A NW5 29.99F ELIZABETH CITY PTCLDY 57 54 89 W7 29.96F KITTY HAWK PTCLDY 58 54 87 CALM 29.94F MANTEO PTCLDY 58 58 99 W5 29.97S $$ NCZ045>047-081-094-103-104-240700- CENTRAL COAST CITY SKY/WX TMP DP RH WIND PRES REMARKS FRISCO CLEAR 62 54 74 W8 29.98F $$ NCZ095-097-098-100-101-240700- SOUTHERN COAST CITY SKY/WX TMP DP RH WIND PRES REMARKS BEAUFORT CLEAR 58 55 90 W6 30.01F CEDAR ISLAND NOT AVBL JACKSONVILLE CLEAR 55 52 89 W6 30.03S PINEY ISLAND CLEAR N/A N/A N/A SW6 30.00 WILMINGTON CLEAR 55 53 93 CALM 30.04S $$ NCZ011>013-027>030-043-044-078>080-089-090>093-098-240700- COASTAL PLAIN CITY SKY/WX TMP DP RH WIND PRES REMARKS AHOSKIE CLOUDY 53 51 94 CALM 30.00F CLINTON CLEAR 53 53 100 CALM 30.05S ELIZABETHTOWN CLEAR 56 54 94 CALM 30.05S GOLDSBORO CLEAR 53 53 100 SW2 30.01F GREENVILLE CLEAR 52 52 100 CALM 30.03S HAVELOCK CLEAR 54 52 93 SW6 30.02F KENANSVILLE CLEAR 49 49 98 CALM 30.05S KINSTON CLEAR 52 51 97 CALM 30.03F NEW BERN CLEAR 53 51 93 W5 30.03F RICHLANDS CLEAR 50 50 100 CALM 30.04S ROCKY MOUNT PTCLDY 51 50 96 S5 30.01F WASHINGTON CLEAR 53 51 94 CALM 30.01S WHITEVILLE CLEAR 54 52 95 CALM 30.05S $$ AMZ130-135-150-152-154-156-158-170-250-252-270-ANZ085-086-088-633-658-670-240700- MARINE OBSERVATIONS STATION/POSITION TIME TEMP WIND PRES WAVE SWELL AIR SEA DIR/SP/G HT/PER HT/PER (UTC) (F) (DEG/KT/KT) (MB) (FT/S) (FT/S) CHESAPEAKE LIGHT 0600 59 250/ 7/ 8 1014.5 64 E VA BEACH 0550 57 62 320/ 12/ 14 1013.2 6/ 9 5/ 9 DUCK 0500 61 63 290/ 6/ 8 1013.9 2 E DUCK 0511 62 N/A 4/ 8 2/11 OREGON INLET 0500 60 65 270/ 6/ 8 1014.6 13E OREGON INLT 0600 61 N/A 5/ 8 5/ 8 HATTERAS CG 0500 63 68 300/ 11/ 12 1014.9 DIAMOND BUOY 0550 63 67 300/ 14/ 17 1015.0 4/ 8 3/ 8 CAPE LOOKOUT 0600 62 310/ 9/ 11 1015.9 BEAUFORT LAB 0500 61 67 300/ 6/ 8 1015.8 30 SE NEW RVR IN 0525 73 N/A 2/ 9 27 SE WRIGHTSVLE 0508 66 72 340/ 10/ 14 1016.6 5 SE WRIGHTSVLE 0508 64 72 310/ 8/ 10 1017.8 225 S CAPE HAT 0550 73 77 260/ 12/ 16 1016.2 4/ 6 3/ 6 41 SE CHARLESTON 0550 71 75 10/ 8/ 10 1017.7 3/ 9 2/ 9 $$

USA.gov is the U.S. government's official web portal to all federal, state and local government web resources and services.